EW5655 Weather Reports


Display with metric or nautical units.
time (UTC)temp
F
wind
direction
speed
MPH
gust
MPH
rain 1hr
in
rain 24hr
in
rain mn
in
humidity
%
barometer
mb
20260506144559 61 247 4.0 8.0 0.00 0.00 0.00 39 1017.0
20260506144054 60 230 5.0 8.0 0.00 0.00 0.00 39 1017.0
20260506143555 60 272 3.0 7.0 0.00 0.00 0.00 39 1017.0
20260506143050 60 244 2.0 5.0 0.00 0.00 0.00 42 1016.9
20260506142548 60 276 2.0 5.0 0.00 0.00 0.00 41 1016.9
20260506142048 59 248 3.0 5.0 0.00 0.00 0.00 41 1017.0
20260506141547 59 276 2.0 4.0 0.00 0.00 0.00 42 1017.0
20260506141051 59 311 0.0 4.0 0.00 0.00 0.00 46 1016.9
20260506140547 58 318 0.0 1.0 0.00 0.00 0.00 45 1016.9
20260506140046 58 318 0.0 1.0 0.00 0.00 0.00 45 1016.8
20260506135545 58 318 0.0 2.0 0.00 0.00 0.00 46 1016.7
20260506135044 57 318 0.0 2.0 0.00 0.00 0.00 52 1016.7
20260506134544 55 318 0.0 1.0 0.00 0.00 0.00 54 1016.7
20260506134043 55 318 0.0 0.0 0.00 0.00 0.00 54 1016.7
20260506133544 54 318 0.0 0.0 0.00 0.00 0.00 56 1016.6
20260506133056 53 318 0.0 0.0 0.00 0.00 0.00 59 1016.7
20260506132543 53 318 0.0 4.0 0.00 0.00 0.00 57 1016.6
20260506132042 53 318 0.0 4.0 0.00 0.00 0.00 59 1016.6
20260506131541 52 318 0.0 4.0 0.00 0.00 0.00 60 1016.5
20260506131040 51 318 0.0 1.0 0.00 0.00 0.00 62 1016.4
20260506130542 50 318 0.0 1.0 0.00 0.00 0.00 63 1016.4
20260506130040 50 318 0.0 0.0 0.00 0.00 0.00 65 1016.3
20260506125538 49 318 0.0 0.0 0.00 0.00 0.00 65 1016.3
20260506125038 49 318 0.0 1.0 0.00 0.00 0.00 66 1016.3
20260506124538 49 318 0.0 1.0 0.00 0.00 0.00 66 1016.2
20260506124036 48 318 0.0 2.0 0.00 0.00 0.00 65 1016.2
20260506123535 48 318 0.0 2.0 0.00 0.00 0.00 65 1016.2
20260506123034 48 318 0.0 1.0 0.00 0.00 0.00 65 1016.1
20260506122534 49 318 0.0 2.0 0.00 0.00 0.00 64 1016.0
20260506122032 49 318 0.0 2.0 0.00 0.00 0.00 65 1016.0
20260506121532 49 318 0.0 1.0 0.00 0.00 0.00 63 1015.9
20260506121031 49 318 0.0 0.0 0.00 0.00 0.00 62 1015.9
20260506120531 49 318 0.0 1.0 0.00 0.00 0.00 61 1015.8
20260506120032 50 318 0.0 2.0 0.00 0.00 0.00 61 1015.7
20260506115530 49 318 0.0 2.0 0.00 0.00 0.00 62 1015.7
20260506115028 49 318 0.0 1.0 0.00 0.00 0.00 64 1015.7
20260506114529 49 318 0.0 1.0 0.00 0.00 0.00 64 1015.6
20260506114127 50 318 0.0 1.0 0.00 0.00 0.00 63 1015.6
20260506113528 50 318 0.0 1.0 0.00 0.00 0.00 62 1015.6
20260506113025 50 318 0.0 1.0 0.00 0.00 0.00 60 1015.5
20260506112524 50 318 0.0 1.0 0.00 0.00 0.00 60 1015.5
20260506112023 50 318 0.0 1.0 0.00 0.00 0.00 62 1015.5
20260506111524 50 318 0.0 1.0 0.00 0.00 0.00 61 1015.4
20260506111024 50 318 0.0 1.0 0.00 0.00 0.00 61 1015.4
20260506110524 50 318 0.0 1.0 0.00 0.00 0.00 60 1015.4
20260506110023 50 318 0.0 1.0 0.00 0.00 0.00 59 1015.4
20260506105521 50 318 0.0 1.0 0.00 0.00 0.00 61 1015.4
20260506105020 50 318 0.0 0.0 0.00 0.00 0.00 59 1015.4
20260506104540 51 318 0.0 1.0 0.00 0.00 0.00 59 1015.4
20260506104019 51 318 0.0 1.0 0.00 0.00 0.00 59 1015.4
20260506103519 51 318 0.0 1.0 0.00 0.00 0.00 58 1015.3
20260506103018 51 318 0.0 1.0 0.00 0.00 0.00 58 1015.3
20260506102519 51 318 0.0 1.0 0.00 0.00 0.00 59 1015.3
20260506102017 51 318 0.0 2.0 0.00 0.00 0.00 59 1015.2
20260506101517 51 318 0.0 2.0 0.00 0.00 0.00 59 1015.2
20260506101015 51 318 0.0 2.0 0.00 0.00 0.00 58 1015.2
20260506100517 51 318 0.0 2.0 0.00 0.00 0.00 58 1015.1
20260506100014 52 318 0.0 2.0 0.00 0.00 0.00 58 1015.0
20260506095512 52 297 0.0 1.0 0.00 0.00 0.00 58 1015.0
20260506095011 53 297 0.0 2.0 0.00 0.00 0.00 56 1015.0
20260506094510 53 297 0.0 2.0 0.00 0.00 0.00 55 1014.9
20260506094008 53 297 0.0 2.0 0.00 0.00 0.00 54 1014.9
20260506093510 53 297 0.0 2.0 0.00 0.00 0.00 54 1014.8
20260506093008 53 297 0.0 1.0 0.00 0.00 0.00 55 1014.8
20260506092508 53 297 0.0 0.0 0.00 0.00 0.00 56 1014.7
20260506092007 53 297 0.0 0.0 0.00 0.00 0.00 56 1014.7
20260506091506 53 297 0.0 0.0 0.00 0.00 0.00 55 1014.8
20260506091005 53 297 0.0 0.0 0.00 0.00 0.00 55 1014.7
20260506090509 54 297 0.0 1.0 0.00 0.00 0.00 53 1014.7
20260506090003 55 297 0.0 2.0 0.00 0.00 0.00 52 1014.7
20260506085503 55 297 0.0 2.0 0.00 0.00 0.00 51 1014.7
20260506085101 55 297 0.0 0.0 0.00 0.00 0.00 49 1014.7
20260506084559 56 297 0.0 1.0 0.00 0.00 0.00 48 1014.6
20260506084058 56 297 0.0 4.0 0.00 0.00 0.00 46 1014.6
20260506083558 56 297 0.0 2.0 0.00 0.00 0.00 46 1014.6
20260506083057 57 297 0.0 2.0 0.00 0.00 0.00 46 1014.7
20260506082556 57 297 0.0 4.0 0.00 0.00 0.00 45 1014.7
20260506082056 57 267 1.0 5.0 0.00 0.00 0.00 44 1014.7
20260506081600 58 263 1.0 6.0 0.00 0.00 0.00 44 1014.7
20260506081055 57 258 2.0 6.0 0.00 0.00 0.00 44 1014.7
20260506080556 58 254 2.0 6.0 0.00 0.00 0.00 43 1014.7
20260506080106 57 255 1.0 4.0 0.00 0.00 0.00 43 1014.7
20260506073051 59 240 3.0 6.0 0.00 0.00 0.00 40 1014.5
20260506072553 58 246 3.0 6.0 0.00 0.00 0.00 40 1014.4
20260506072051 58 251 3.0 6.0 0.00 0.00 0.00 41 1014.4
20260506071601 57 228 1.0 4.0 0.00 0.00 0.00 42 1014.4
20260506071050 57 228 1.0 4.0 0.00 0.00 0.00 43 1014.4
20260506070549 56 228 0.0 4.0 0.00 0.00 0.00 43 1014.4
20260506062040 59 218 0.0 2.0 0.00 0.00 0.00 37 1014.0
20260506061539 60 218 0.0 2.0 0.00 0.00 0.00 36 1013.9
20260506061039 60 218 0.0 5.0 0.00 0.00 0.00 34 1013.9
20260506060541 61 237 0.0 5.0 0.00 0.00 0.00 33 1013.9
20260506051034 64 209 2.0 8.0 0.00 0.00 0.00 29 1013.5
20260506050535 64 190 3.0 8.0 0.00 0.00 0.00 29 1013.4
20260506045032 64 194 1.0 3.0 0.00 0.00 0.00 28 1013.3
20260506044536 64 194 1.0 4.0 0.00 0.00 0.00 28 1013.4
20260506044032 64 194 1.0 5.0 0.00 0.00 0.00 28 1013.3
20260506043533 64 194 2.0 5.0 0.00 0.00 0.00 27 1013.2
20260506043036 65 205 1.0 5.0 0.00 0.00 0.00 27 1013.2
20260506042532 65 227 3.0 9.0 0.00 0.00 0.00 26 1013.2
20260506042033 65 214 4.0 9.0 0.00 0.00 0.00 26 1013.1
20260506041536 65 189 4.0 7.0 0.00 0.00 0.00 26 1013.1
20260506041033 65 198 2.0 6.0 0.00 0.00 0.00 27 1013.0
20260506040531 66 184 3.0 7.0 0.00 0.00 0.00 26 1012.9
20260506040044 66 196 3.0 7.0 0.00 0.00 0.00 26 1012.9
20260506035531 66 202 2.0 7.0 0.00 0.00 0.00 25 1012.8
20260506035030 66 204 4.0 8.0 0.00 0.00 0.00 25 1012.8
20260506034531 67 209 3.0 8.0 0.00 0.00 0.00 24 1012.7
20260506034029 67 215 3.0 8.0 0.00 0.00 0.00 24 1012.5
20260506033529 68 198 4.0 8.0 0.00 0.00 0.00 23 1012.5
20260506033030 68 232 4.0 8.0 0.00 0.00 0.00 23 1012.4
20260506032529 68 219 4.0 9.0 0.00 0.00 0.00 23 1012.3
20260506032029 68 263 4.0 9.0 0.00 0.00 0.00 24 1012.2
20260506031530 68 219 3.0 6.0 0.00 0.00 0.00 24 1012.2
20260506031029 68 211 2.0 6.0 0.00 0.00 0.00 24 1012.2
20260506030532 68 224 3.0 6.0 0.00 0.00 0.00 24 1012.1
20260506030030 68 213 3.0 5.0 0.00 0.00 0.00 24 1012.0
20260506025529 69 214 2.0 6.0 0.00 0.00 0.00 24 1012.0
20260506025028 69 229 2.0 7.0 0.00 0.00 0.00 24 1011.9
20260506024536 69 217 3.0 7.0 0.00 0.00 0.00 24 1011.8
20260506024028 69 202 4.0 7.0 0.00 0.00 0.00 24 1011.8
20260506023529 69 217 4.0 7.0 0.00 0.00 0.00 23 1011.7
20260506023028 70 242 3.0 7.0 0.00 0.00 0.00 23 1011.7
20260506022527 70 271 4.0 8.0 0.00 0.00 0.00 23 1011.7
20260506022027 70 240 5.0 9.0 0.00 0.00 0.00 23 1011.6
20260506021542 70 244 6.0 9.0 0.00 0.00 0.00 23 1011.5
20260506021028 70 242 5.0 9.0 0.00 0.00 0.00 23 1011.4
20260506020531 70 266 3.0 10.0 0.00 0.00 0.00 24 1011.4
20260506020026 71 268 5.0 10.0 0.00 0.00 0.00 24 1011.3
20260506015527 71 247 3.0 10.0 0.00 0.00 0.00 24 1011.4
20260506015026 71 264 5.0 10.0 0.00 0.00 0.00 24 1011.4
20260506014527 71 271 5.0 12.0 0.00 0.00 0.00 24 1011.3
20260506014025 71 302 6.0 12.0 0.00 0.00 0.00 25 1011.3
20260506013526 71 248 7.0 11.0 0.00 0.00 0.00 25 1011.3
20260506013025 71 230 6.0 11.0 0.00 0.00 0.00 26 1011.2
20260506012525 71 244 6.0 9.0 0.00 0.00 0.00 28 1011.2
20260506012025 71 281 5.0 9.0 0.00 0.00 0.00 29 1011.2
20260506011528 72 297 5.0 11.0 0.00 0.00 0.00 29 1011.2
20260506011028 72 261 6.0 11.0 0.00 0.00 0.00 29 1011.2
20260506010524 72 250 5.0 11.0 0.00 0.00 0.00 29 1011.3
20260506010027 72 248 3.0 10.0 0.00 0.00 0.00 30 1011.2
20260506005523 72 268 6.0 10.0 0.00 0.00 0.00 29 1011.2
20260506005026 72 271 4.0 12.0 0.00 0.00 0.00 29 1011.2
20260506004523 73 304 5.0 12.0 0.00 0.00 0.00 28 1011.2
20260506004023 73 256 4.0 12.0 0.00 0.00 0.00 27 1011.2
20260506003524 73 281 8.0 12.0 0.00 0.00 0.00 27 1011.1
20260506003024 73 269 5.0 10.0 0.00 0.00 0.00 25 1011.1
20260506002526 73 248 6.0 10.0 0.00 0.00 0.00 26 1011.2
20260506002023 73 223 4.0 9.0 0.00 0.00 0.00 29 1011.2
20260506001522 73 237 5.0 10.0 0.00 0.00 0.00 28 1011.2
20260506001023 73 271 6.0 10.0 0.00 0.00 0.00 27 1011.1
20260506000523 73 215 5.0 14.0 0.00 0.00 0.00 27 1011.2
20260506000022 73 302 5.0 14.0 0.00 0.00 0.00 28 1011.1
20260505235522 73 235 8.0 13.0 0.00 0.00 0.00 27 1011.2
20260505235021 74 286 6.0 11.0 0.00 0.00 0.00 28 1011.1
20260505234521 74 235 7.0 14.0 0.00 0.00 0.00 27 1011.2
20260505234020 74 240 6.0 19.0 0.00 0.00 0.00 28 1011.3
20260505233520 74 191 10.0 19.0 0.00 0.00 0.00 27 1011.2
20260505233020 74 244 6.0 13.0 0.00 0.00 0.00 28 1011.2
20260505232520 74 250 6.0 13.0 0.00 0.00 0.00 28 1011.2
20260505232019 74 262 6.0 15.0 0.00 0.00 0.00 28 1011.4
20260505231525 74 291 8.0 15.0 0.00 0.00 0.00 27 1011.3
20260505231018 74 271 8.0 14.0 0.00 0.00 0.00 27 1011.4
20260505230518 74 291 8.0 11.0 0.00 0.00 0.00 28 1011.4
20260505230018 74 281 7.0 14.0 0.00 0.00 0.00 28 1011.5
20260505225517 73 261 6.0 16.0 0.00 0.00 0.00 28 1011.5
20260505225017 74 240 10.0 16.0 0.00 0.00 0.00 28 1011.6
20260505224525 74 185 9.0 18.0 0.00 0.00 0.00 27 1011.7
20260505224016 74 276 8.0 19.0 0.00 0.00 0.00 27 1011.7
20260505223514 74 232 8.0 19.0 0.00 0.00 0.00 28 1011.7
20260505223017 75 236 9.0 16.0 0.00 0.00 0.00 28 1011.7
20260505222512 74 294 11.0 16.0 0.00 0.00 0.00 29 1011.8
20260505222012 74 232 7.0 13.0 0.00 0.00 0.00 30 1011.9
20260505221512 74 207 7.0 19.0 0.00 0.00 0.00 29 1012.0
20260505221011 74 202 9.0 19.0 0.00 0.00 0.00 29 1012.0
20260505220512 74 243 7.0 18.0 0.00 0.00 0.00 28 1012.1
20260505220010 74 281 11.0 18.0 0.00 0.00 0.00 29 1012.3
20260505215509 74 211 7.0 13.0 0.00 0.00 0.00 30 1012.2
20260505215009 74 240 5.0 20.0 0.00 0.00 0.00 30 1012.4
20260505214507 74 296 11.0 20.0 0.00 0.00 0.00 29 1012.4
20260505214005 74 241 7.0 14.0 0.00 0.00 0.00 32 1012.6
20260505213505 73 237 6.0 11.0 0.00 0.00 0.00 33 1012.6
20260505213006 73 253 5.0 11.0 0.00 0.00 0.00 34 1012.7
20260505212503 72 271 6.0 12.0 0.00 0.00 0.00 35 1012.9
20260505212002 72 239 7.0 13.0 0.00 0.00 0.00 35 1012.9
20260505211504 71 224 8.0 13.0 0.00 0.00 0.00 36 1013.0
20260505211100 72 217 7.0 13.0 0.00 0.00 0.00 36 1013.1
20260505210559 72 198 7.0 14.0 0.00 0.00 0.00 36 1013.1
20260505210058 71 269 7.0 14.0 0.00 0.00 0.00 36 1013.2
20260505205558 71 201 8.0 16.0 0.00 0.00 0.00 36 1013.4
20260505205057 71 202 10.0 16.0 0.00 0.00 0.00 37 1013.4
20260505204557 71 292 8.0 14.0 0.00 0.00 0.00 37 1013.5
20260505204057 70 181 8.0 14.0 0.00 0.00 0.00 37 1013.6
20260505203554 70 248 8.0 15.0 0.00 0.00 0.00 38 1013.8
20260505203119 70 255 9.0 15.0 0.00 0.00 0.00 38 1013.9
20260505202555 70 234 8.0 15.0 0.00 0.00 0.00 38 1013.9
20260505202055 70 234 8.0 14.0 0.00 0.00 0.00 37 1013.9
20260505201554 69 228 9.0 14.0 0.00 0.00 0.00 38 1014.0
20260505201054 69 318 8.0 14.0 0.00 0.00 0.00 38 1014.1
20260505200554 69 209 7.0 20.0 0.00 0.00 0.00 38 1014.0
20260505200053 69 202 9.0 20.0 0.00 0.00 0.00 38 1014.1
20260505195553 69 294 7.0 13.0 0.00 0.00 0.00 38 1014.2
20260505195053 69 199 7.0 13.0 0.00 0.00 0.00 38 1014.2
20260505194553 68 238 7.0 14.0 0.00 0.00 0.00 40 1014.3
20260505194053 68 231 8.0 14.0 0.00 0.00 0.00 40 1014.4
20260505193553 68 217 7.0 15.0 0.00 0.00 0.00 40 1014.4
20260505193053 67 251 8.0 18.0 0.00 0.00 0.00 40 1014.4
20260505192557 67 261 9.0 24.0 0.00 0.00 0.00 42 1014.6
20260505192054 67 250 13.0 26.0 0.00 0.00 0.00 42 1014.7
20260505191555 67 291 13.0 26.0 0.00 0.00 0.00 43 1014.6
20260505191053 66 263 12.0 25.0 0.00 0.00 0.00 42 1014.6
20260505190552 66 272 10.0 25.0 0.00 0.00 0.00 44 1014.6
20260505190052 66 254 8.0 23.0 0.00 0.00 0.00 46 1014.8
20260505185551 66 255 13.0 25.0 0.00 0.00 0.00 43 1015.0
20260505185051 66 232 15.0 27.0 0.00 0.00 0.00 41 1015.3
20260505184552 66 286 16.0 27.0 0.00 0.00 0.00 39 1015.4
20260505184051 66 227 11.0 22.0 0.00 0.00 0.00 39 1015.3
20260505183550 66 235 10.0 18.0 0.00 0.00 0.00 39 1015.2
20260505183049 66 327 10.0 16.0 0.00 0.00 0.00 40 1014.9
20260505182550 66 298 6.0 20.0 0.00 0.00 0.00 41 1014.8
20260505182048 66 234 9.0 22.0 0.00 0.00 0.00 40 1014.7
20260505181547 67 344 10.0 22.0 0.00 0.00 0.00 40 1014.8
20260505181047 67 252 10.0 22.0 0.00 0.00 0.00 38 1014.8
20260505180550 67 286 10.0 22.0 0.00 0.00 0.00 37 1014.6
20260505180048 68 300 8.0 16.0 0.00 0.00 0.00 36 1014.7
20260505175546 68 238 9.0 20.0 0.00 0.00 0.00 35 1014.5
20260505175045 68 238 10.0 19.0 0.00 0.00 0.00 35 1014.5
20260505174545 69 254 8.0 18.0 0.00 0.00 0.00 35 1014.5
20260505174046 69 276 9.0 18.0 0.00 0.00 0.00 34 1014.5
20260505173545 69 239 7.0 16.0 0.00 0.00 0.00 34 1014.4
20260505173045 69 260 11.0 15.0 0.00 0.00 0.00 34 1014.4
20260505172548 70 256 8.0 14.0 0.00 0.00 0.00 34 1014.3
20260505172045 69 181 6.0 12.0 0.00 0.00 0.00 34 1014.4
20260505171545 69 251 8.0 16.0 0.00 0.00 0.00 34 1014.4
20260505171044 69 237 8.0 18.0 0.00 0.00 0.00 34 1014.4
20260505170544 69 259 9.0 18.0 0.00 0.00 0.00 34 1014.5
20260505170044 70 225 8.0 14.0 0.00 0.00 0.00 35 1014.4
20260505165546 70 300 5.0 14.0 0.00 0.00 0.00 35 1014.2
20260505165043 70 245 4.0 11.0 0.00 0.00 0.00 36 1014.2
20260505164541 69 296 5.0 11.0 0.00 0.00 0.00 35 1014.2
20260505164043 69 244 5.0 11.0 0.00 0.00 0.00 38 1014.2
20260505163539 68 253 5.0 11.0 0.00 0.00 0.00 38 1014.3
20260505163037 67 263 4.0 9.0 0.00 0.00 0.00 39 1014.3
20260505162539 67 256 4.0 8.0 0.00 0.00 0.00 40 1014.4
20260505162035 66 313 3.0 7.0 0.00 0.00 0.00 40 1014.2
20260505161534 65 259 2.0 8.0 0.00 0.00 0.00 41 1014.2
20260505161036 65 257 4.0 9.0 0.00 0.00 0.00 40 1014.3
20260505160533 65 242 5.0 9.0 0.00 0.00 0.00 40 1014.2
20260505153026 64 311 3.0 8.0 0.00 0.00 0.00 44 1014.4
20260505152526 64 272 3.0 8.0 0.00 0.00 0.00 43 1014.4
20260505152025 64 276 3.0 7.0 0.00 0.00 0.00 44 1014.4
20260505151533 63 323 3.0 6.0 0.00 0.00 0.00 46 1014.4
20260505151026 63 307 2.0 5.0 0.00 0.00 0.00 47 1014.4
20260505150529 63 281 1.0 4.0 0.00 0.00 0.00 47 1014.4